SCP
0 0 -0 -0 -0 -0 -0 -0 -0 -0 -0 -0 -0 -0 -0 -0 -0 -0 -0 -0 -0 -0 -0 -0 -0 -0 -0 -0 -0 -0 -0 -0 -0 -0 -0 -0 -0 -0 -0 0 -0 -0 0
0 0 -0 -0 -0 -0 -0 -0 -0 -0 -0 -0 -0 -0 -0 -0 -0 -0 -0 -0 -0 -0 -0 -0 -0 -0 -0 -0 -0 -0 -0 -0 -0 -0 -0 -0 -0 -0 -0 -0 0 0 -0
0 0 0 -0 -0 -0 -0 -0 -0 -0 -0 -0 -0 -0 -0 -0 -0 -0 -0 -0 -0 -0 -0 -0 -0 -0 -0 -0 -0 -0 -0 -0 -0 -0 -0 -0 -0 0 -0 -0 0 -0 0
0 0 0 0 -0 -0 -0 -0 -0 -0 -0 -0 -0 -0 -0 -0 -0 -0 -0 -0 -0 -0 -0 -0 -0 -0 -0 -0 -0 -0 -0 -0 -0 -0 0 -0 -0 -0 -0 -0 0 0 0
0 0 0 0 -0 -0 -0 0 0 -0 -0 -0 -0 -0 -0 -0 -0 -0 -0 -0 -0 -0 -0 -0 -0 -0 -0 -0 -0 -0 -0 -0 0 0 -0 -0 -0 -0 0 0 -0 -0 -0
0 1 0 0 0 0 0 0 0 0 -0 -0 -0 -0 -0 -0 -0 -0 -0 -0 -0 -0 -0 -0 -0 -0 -0 -0 -0 -0 -0 0 0 0 -0 -0 -0 0 0 0 0 -0 -0
0 0 0 0 0 0 0 0 0 0 0 0 -0 -0 -0 -0 0 0 -0 -0 -0 -0 -0 -0 -0 -0 -0 -0 -0 0 0 0 0 -0 -0 -0 -0 0 0 0 0 -0 0
0 0 0 0 0 0 0 0 0 0 0 0 -0 -0 -0 0 0 0 0 0 -0 -0 -0 -0 0 0 0 0 0 0 0 0 0 -0 -0 -0 -0 -0 0 0 -0 -0 -0
0 1 0 0 0 0 0 0 0 0 0 0 -0 -0 -0 0 0 0 0 0 0 0 0 0 0 0 0 0 0 0 0 0 0 0 -0 -0 -0 0 0 -0 -0 -0 -0
0 1 0 0 0 0 0 0 0 0 0 0 0 0 -0 0 0 0 0 0 0 0 0 0 0 0 0 0 0 0 0 0 0 0 -0 -0 -0 -0 0 -0 -0 -0 0
0 0 0 0 0 0 0 0 0 0 0 0 0 0 0 0 0 0 0 0 0 0 0 0 0 0 0 0 0 0 0 0 0 0 -0 -0 0 0 -0 -0 -0 -0 -0
0 0 0 0 0 0 0 0 0 0 0 0 0 0 0 0 0 0 0 0 0 0 0 0 0 0 0 0 0 0 0 0 0 0 -0 0 0 0 -0 -0 -0 -0 0
0 0 0 0 0 0 0 0 0 0 0 0 0 0 0 0 0 0 0 0 0 0 0 0 0 0 0 0 0 0 0 0 0 0 0 0 0 0 0 0 0 0 0
0 0 0 0 0 0 0 0 0 0 0 0 0 0 0 0 0 0 0 0 0 0 0 0 0 0 0 0 0 0 0 0 0 0 0 -0 0 0 0 0 0 0 0
0 0 0 0 0 0 0 0 0 0 0 0 0 0 0 0 0 0 0 0 0 0 0 0 0 0 0 0 0 0 0 0 0 0 -0 0 0 0 0 0 0 0 0
0 0 0 0 0 0 0 0 0 0 0 0 0 0 0 0 0 0 0 0 0 0 0 0 0 0 0 0 0 0 0 0 0 0 0 0 0 0 0 0 0 0 0
0 0 0 0 0 0 0 0 0 0 0 0 0 0 0 0 0 0 0 0 0 0 0 0 0 0 0 0 0 0 0 0 0 0 0 0 0 0 0 0 0 0 0
0 0 0 0 0 0 0 0 0 0 0 0 0 0 0 0 0 0 0 0 0 0 0 0 0 0 0 0 0 0 0 0 0 0 0 0 0 0 0 0 0 0 0
0 0 0 0 0 0 0 0 0 0 0 0 0 0 0 0 0 0 0 0 0 0 0 0 0 0 0 0 0 0 0 0 0 0 0 0 0 0 0 0 0 0 0
0 0 0 0 0 0 0 0 0 0 0 0 0 0 0 0 0 0 0 0 0 0 0 0 0 0 0 0 0 0 0 0 0 0 0 0 0 0 0 0 0 0 0
0 0 0 0 0 0 0 0 0 0 0 0 0 0 0 0 0 0 0 0 0 0 0 0 0 0 0 0 0 0 0 0 0 0 0 0 0 0 0 0 0 0 0
0 0 0 0 0 0 0 0 0 0 0 0 0 0 0 0 0 0 0 0 0 0 0 0 0 0 0 0 0 0 0 0 0 0 0 0 0 0 0 0 0 0 0
0 0 0 0 0 0 0 0 0 0 0 0 0 0 0 0 0 0 0 0 0 0 0 0 0 0 0 0 0 0 0 0 0 0 0 0 0 0 0 0 0 0 0
0 0 0 0 0 0 0 0 0 0 0 0 0 0 0 0 0 0 0 0 0 0 0 0 0 0 0 0 0 0 0 0 0 0 0 0 0 0 0 0 0 0 0
0 0 0 0 0 0 0 0 0 0 0 0 0 0 0 0 0 0 0 0 0 0 0 0 0 0 0 0 0 0 0 0 0 0 0 0 0 0 0 0 0 0 0
0 0 0 0 0 0 0 0 0 0 0 0 0 0 0 0 0 0 0 0 0 0 0 0 0 0 0 0 0 0 0 0 0 0 0 0 0 0 0 0 0 0 0
Wind_Speed_500mb
55 60 54 47 42 42 40 38 36 36 35 35 34 28 27 29 30 27 24 26 29 32 34 34 34 25 36 37 34 34 36 30 35 30 34 35 29 30 33 32 32 30 28
61 63 56 50 45 42 42 39 37 36 37 35 32 29 28 29 30 23 23 25 24 32 34 33 34 30 29 28 29 31 29 31 33 33 31 31 33 25 26 29 25 23 27
61 64 58 52 47 43 42 41 39 37 36 35 34 32 33 30 26 18 16 19 20 29 29 35 32 31 26 29 31 32 32 29 26 25 22 23 23 23 20 21 25 24 22
59 64 60 54 47 43 40 41 40 38 38 38 36 34 35 30 27 18 10 14 19 23 26 30 30 25 27 32 31 29 30 29 27 25 22 23 24 23 22 22 21 21 20
60 63 59 54 48 42 39 38 38 38 38 40 39 37 35 32 31 20 9 11 18 22 23 29 25 24 23 25 25 25 24 26 25 23 21 22 23 21 22 21 22 22 22
64 64 59 53 47 41 38 36 35 35 36 40 41 39 37 35 34 22 8 12 21 23 23 23 23 20 19 20 20 20 22 23 22 21 20 20 20 20 20 20 23 23 23
67 64 59 52 46 42 39 36 37 36 38 39 44 45 44 43 30 19 10 11 17 23 24 23 21 20 17 15 16 17 18 19 19 19 18 17 17 17 18 18 19 21 26
66 65 60 55 48 44 42 41 41 43 42 42 47 50 47 41 27 18 12 11 13 21 23 23 21 19 16 12 13 14 15 16 15 17 16 15 14 15 14 15 14 15 21
65 65 61 56 50 46 45 46 45 46 44 43 49 52 44 31 22 16 13 12 16 24 24 23 21 18 14 11 10 11 12 13 12 12 14 14 13 13 13 15 18 19 19
66 65 62 56 52 52 50 51 48 49 48 48 49 41 34 26 20 16 12 18 22 26 25 23 20 16 13 10 9 8 9 9 9 10 11 11 10 11 11 12 11 7 6
65 66 64 59 56 55 55 57 50 47 48 46 43 40 34 26 20 16 15 20 28 28 26 23 19 16 12 10 7 6 5 6 6 7 8 10 8 6 5 5 6 8 10
71 74 70 63 61 59 61 62 56 51 50 49 45 37 28 22 19 18 18 26 31 30 27 23 19 15 12 10 6 4 4 3 4 4 5 7 7 7 6 6 8 9 10
76 79 76 69 65 66 67 68 62 57 53 47 41 34 29 25 23 22 23 33 33 30 26 22 19 16 13 12 8 6 4 2 1 1 3 4 5 11 8 8 10 10 7
81 81 77 73 69 71 69 70 69 63 57 49 42 36 31 29 28 28 28 33 32 29 25 22 19 15 13 12 9 7 5 4 2 1 5 4 5 9 10 11 10 10 3
75 79 83 79 75 74 72 71 66 66 59 50 43 37 33 30 30 32 34 34 33 29 25 22 17 14 13 12 10 7 5 4 2 3 5 8 8 6 10 8 9 5 7
75 80 82 78 77 77 75 72 71 68 61 54 48 40 35 31 33 35 37 36 33 29 25 21 16 13 13 12 11 7 6 5 3 3 5 5 7 8 8 8 5 7 5
65 80 86 82 78 81 77 71 71 67 62 55 51 42 37 35 35 34 37 37 34 31 27 23 17 13 12 11 9 5 5 2 2 2 3 8 10 13 7 6 6 7 5
68 79 82 80 79 79 76 71 70 68 63 59 50 43 39 38 35 36 37 37 36 32 27 22 15 11 7 5 9 7 6 10 7 6 8 10 11 10 8 5 4 4 4
63 70 78 79 80 77 75 72 71 65 66 58 52 46 42 42 38 40 36 35 36 32 26 21 18 13 11 7 11 7 5 7 10 6 7 10 7 6 5 4 5 4 6
60 70 67 80 80 71 70 71 71 69 66 60 53 48 43 43 42 41 37 36 33 29 25 23 19 16 13 10 9 6 6 7 9 10 9 9 9 10 11 10 11 11 14
54 66 68 79 78 75 76 77 77 77 69 63 54 48 46 44 44 42 38 36 34 31 26 26 23 19 19 17 15 13 12 16 16 16 15 14 16 17 18 21 20 21 20
55 62 79 78 71 73 77 81 80 75 72 64 54 50 47 45 45 43 39 40 40 37 34 31 28 22 21 21 19 16 17 17 19 21 22 23 24 24 23 26 28 29 27
65 68 67 61 69 80 81 81 77 74 69 70 66 58 52 50 48 42 40 45 43 40 37 34 28 26 25 25 25 23 12 11 9 17 22 27 30 29 30 32 31 29 35
66 73 67 65 69 67 83 85 85 83 84 81 75 66 56 52 51 48 48 48 45 44 44 41 36 29 31 34 34 33 31 26 19 16 26 30 31 36 31 35 33 39 34
28 52 58 69 77 64 69 78 89 84 80 80 80 69 61 57 56 53 54 53 54 54 56 59 49 44 37 39 39 35 37 36 40 44 26 33 36 32 32 35 35 39 32
23 20 24 16 44 60 62 54 94 89 85 83 81 75 69 60 60 60 58 58 61 63 57 37 47 47 45 47 42 42 40 37 37 30 38 35 26 31 26 27 33 29 29
Wind_Direction_500mb
177 172 172 173 172 172 171 169 171 164 159 156 155 151 141 132 126 115 109 106 110 114 116 110 109 112 118 113 112 113 104 96 91 89 91 73 71 81 79 85 74 74 78
173 174 171 173 171 173 176 173 173 166 159 157 154 150 142 140 134 128 108 112 109 119 119 125 117 112 113 112 109 110 111 110 106 101 105 107 98 90 86 85 89 86 86
177 173 171 175 174 176 178 179 180 176 170 163 155 151 149 146 141 144 109 108 104 123 124 119 123 113 112 108 107 101 98 98 97 93 92 95 89 85 84 75 75 76 74
180 175 173 177 179 181 179 181 185 184 178 174 166 162 157 156 158 155 134 114 111 121 125 123 125 120 108 101 104 100 95 92 90 89 88 85 83 81 79 74 71 66 67
182 179 177 179 181 184 181 182 186 187 185 180 174 168 163 164 160 157 165 128 129 127 126 128 131 119 104 96 93 98 96 88 86 86 83 81 79 75 71 65 63 59 60
181 182 177 182 182 184 183 182 185 183 183 182 177 175 169 166 160 156 161 114 132 133 132 132 129 118 102 92 91 93 90 86 84 83 80 78 78 71 68 65 66 62 61
181 181 182 183 184 184 181 181 175 169 163 165 170 171 168 167 166 151 164 127 135 143 140 138 135 126 112 106 99 90 83 85 86 77 77 74 71 66 60 61 67 66 69
183 181 183 183 186 183 180 176 170 159 165 168 169 169 167 168 170 167 177 150 145 149 145 139 137 139 135 124 104 94 87 91 83 79 71 67 61 60 53 53 57 72 77
187 184 184 184 186 181 181 175 170 169 167 166 165 164 168 171 172 184 194 185 163 153 149 146 149 150 146 139 118 104 96 92 85 75 67 70 67 63 55 59 47 73 73
191 188 187 183 186 181 180 177 175 175 173 171 166 173 178 184 187 193 194 188 173 159 157 158 157 158 154 153 144 119 106 98 88 78 68 65 69 67 59 52 29 43 80
194 192 191 185 186 184 181 180 179 177 178 178 177 178 180 187 196 188 175 180 173 168 167 166 166 165 160 163 158 137 121 110 88 80 64 53 60 64 74 98 62 89 79
193 196 195 191 189 187 184 182 183 179 180 181 181 180 186 195 205 190 180 178 173 174 173 172 172 169 167 168 178 159 147 110 103 82 53 47 56 59 63 72 58 97 67
195 195 196 194 191 189 187 186 186 182 181 182 184 189 195 204 206 197 189 180 180 180 179 179 181 184 187 190 190 192 186 160 109 5 0 355 54 43 30 49 74 82 63
199 197 194 198 192 192 190 191 189 189 189 189 191 199 205 206 205 199 193 186 184 183 183 186 189 194 197 197 202 208 198 190 175 18 342 339 72 43 57 65 85 81 8
206 200 198 198 195 194 193 193 191 194 196 198 203 206 209 210 207 198 190 189 188 188 188 190 191 196 194 192 192 193 191 171 168 71 8 52 25 18 92 109 107 43 4
209 205 204 202 199 196 195 193 194 195 197 201 209 213 209 207 201 195 193 191 191 189 190 192 192 188 185 178 164 147 134 116 121 66 56 44 351 7 97 62 132 104 353
225 210 210 205 199 199 197 196 196 197 198 205 212 210 205 199 196 198 196 195 192 191 192 191 189 190 179 164 170 163 171 159 87 100 284 334 344 6 20 40 86 112 15
231 224 218 207 203 201 200 198 198 199 202 207 213 207 203 201 200 197 193 192 192 190 191 188 171 154 147 196 207 193 219 222 198 221 262 302 315 351 11 33 60 130 113
232 222 213 206 206 203 199 201 202 205 203 209 210 208 206 205 204 196 193 187 189 191 190 184 166 176 197 231 147 134 154 154 188 225 261 283 280 308 340 342 303 304 267
234 230 222 209 207 207 202 205 203 202 207 209 209 211 210 208 205 199 196 195 192 190 178 169 178 192 204 163 156 225 222 244 248 254 263 253 251 270 288 307 317 305 296
233 216 217 205 208 201 206 204 203 204 207 207 209 212 212 211 205 200 199 199 191 183 178 174 184 206 196 196 203 207 229 257 251 247 256 258 266 273 287 295 298 303 303
223 227 213 201 213 211 207 207 207 208 209 209 210 211 212 211 208 205 201 195 196 198 197 197 197 191 202 206 214 224 230 248 254 251 253 253 260 271 278 293 295 303 304
209 212 210 208 228 215 210 210 212 214 213 214 212 212 210 210 210 208 203 202 207 210 209 200 196 198 208 211 219 229 220 229 241 263 269 264 269 280 285 305 286 296 294
204 207 210 216 214 220 219 212 211 212 212 215 211 211 210 209 208 209 211 213 216 219 218 209 200 200 214 219 224 234 245 250 256 256 258 257 258 268 276 284 286 288 295
193 193 204 211 207 212 210 220 219 214 217 218 214 214 212 211 211 213 217 220 222 225 227 215 215 218 226 237 240 249 254 260 258 251 260 252 253 265 263 277 294 287 290
190 186 184 216 216 226 252 251 223 222 218 221 222 212 212 217 220 220 222 225 229 230 234 235 222 220 228 240 247 251 258 267 277 269 287 248 242 259 266 271 279 286 282
Wind_Speed_850mb
55 60 54 47 42 42 40 38 36 36 35 35 34 28 27 29 30 27 24 26 29 32 34 34 34 25 36 37 34 34 36 30 35 30 34 35 29 30 33 32 32 30 28
61 63 56 50 45 42 42 39 37 36 37 35 32 29 28 29 30 23 23 25 24 32 34 33 34 30 29 28 29 31 29 31 33 33 31 31 33 25 26 29 25 23 27
61 64 58 52 47 43 42 41 39 37 36 35 34 32 33 30 26 18 16 19 20 29 29 35 32 31 26 29 31 32 32 29 26 25 22 23 23 23 20 21 25 24 22
59 64 60 54 47 43 40 41 40 38 38 38 36 34 35 30 27 18 10 14 19 23 26 30 30 25 27 32 31 29 30 29 27 25 22 23 24 23 22 22 21 21 20
60 63 59 54 48 42 39 38 38 38 38 40 39 37 35 32 31 20 9 11 18 22 23 29 25 24 23 25 25 25 24 26 25 23 21 22 23 21 22 21 22 22 22
64 64 59 53 47 41 38 36 35 35 36 40 41 39 37 35 34 22 8 12 21 23 23 23 23 20 19 20 20 20 22 23 22 21 20 20 20 20 20 20 23 23 23
67 64 59 52 46 42 39 36 37 36 38 39 44 45 44 43 30 19 10 11 17 23 24 23 21 20 17 15 16 17 18 19 19 19 18 17 17 17 18 18 19 21 26
66 65 60 55 48 44 42 41 41 43 42 42 47 50 47 41 27 18 12 11 13 21 23 23 21 19 16 12 13 14 15 16 15 17 16 15 14 15 14 15 14 15 21
65 65 61 56 50 46 45 46 45 46 44 43 49 52 44 31 22 16 13 12 16 24 24 23 21 18 14 11 10 11 12 13 12 12 14 14 13 13 13 15 18 19 19
66 65 62 56 52 52 50 51 48 49 48 48 49 41 34 26 20 16 12 18 22 26 25 23 20 16 13 10 9 8 9 9 9 10 11 11 10 11 11 12 11 7 6
65 66 64 59 56 55 55 57 50 47 48 46 43 40 34 26 20 16 15 20 28 28 26 23 19 16 12 10 7 6 5 6 6 7 8 10 8 6 5 5 6 8 10
71 74 70 63 61 59 61 62 56 51 50 49 45 37 28 22 19 18 18 26 31 30 27 23 19 15 12 10 6 4 4 3 4 4 5 7 7 7 6 6 8 9 10
76 79 76 69 65 66 67 68 62 57 53 47 41 34 29 25 23 22 23 33 33 30 26 22 19 16 13 12 8 6 4 2 1 1 3 4 5 11 8 8 10 10 7
81 81 77 73 69 71 69 70 69 63 57 49 42 36 31 29 28 28 28 33 32 29 25 22 19 15 13 12 9 7 5 4 2 1 5 4 5 9 10 11 10 10 3
75 79 83 79 75 74 72 71 66 66 59 50 43 37 33 30 30 32 34 34 33 29 25 22 17 14 13 12 10 7 5 4 2 3 5 8 8 6 10 8 9 5 7
75 80 82 78 77 77 75 72 71 68 61 54 48 40 35 31 33 35 37 36 33 29 25 21 16 13 13 12 11 7 6 5 3 3 5 5 7 8 8 8 5 7 5
65 80 86 82 78 81 77 71 71 67 62 55 51 42 37 35 35 34 37 37 34 31 27 23 17 13 12 11 9 5 5 2 2 2 3 8 10 13 7 6 6 7 5
68 79 82 80 79 79 76 71 70 68 63 59 50 43 39 38 35 36 37 37 36 32 27 22 15 11 7 5 9 7 6 10 7 6 8 10 11 10 8 5 4 4 4
63 70 78 79 80 77 75 72 71 65 66 58 52 46 42 42 38 40 36 35 36 32 26 21 18 13 11 7 11 7 5 7 10 6 7 10 7 6 5 4 5 4 6
60 70 67 80 80 71 70 71 71 69 66 60 53 48 43 43 42 41 37 36 33 29 25 23 19 16 13 10 9 6 6 7 9 10 9 9 9 10 11 10 11 11 14
54 66 68 79 78 75 76 77 77 77 69 63 54 48 46 44 44 42 38 36 34 31 26 26 23 19 19 17 15 13 12 16 16 16 15 14 16 17 18 21 20 21 20
55 62 79 78 71 73 77 81 80 75 72 64 54 50 47 45 45 43 39 40 40 37 34 31 28 22 21 21 19 16 17 17 19 21 22 23 24 24 23 26 28 29 27
65 68 67 61 69 80 81 81 77 74 69 70 66 58 52 50 48 42 40 45 43 40 37 34 28 26 25 25 25 23 12 11 9 17 22 27 30 29 30 32 31 29 35
66 73 67 65 69 67 83 85 85 83 84 81 75 66 56 52 51 48 48 48 45 44 44 41 36 29 31 34 34 33 31 26 19 16 26 30 31 36 31 35 33 39 34
28 52 58 69 77 64 69 78 89 84 80 80 80 69 61 57 56 53 54 53 54 54 56 59 49 44 37 39 39 35 37 36 40 44 26 33 36 32 32 35 35 39 32
23 20 24 16 44 60 62 54 94 89 85 83 81 75 69 60 60 60 58 58 61 63 57 37 47 47 45 47 42 42 40 37 37 30 38 35 26 31 26 27 33 29 29
Wind_Direction_850mb
177 172 172 173 172 172 171 169 171 164 159 156 155 151 141 132 126 115 109 106 110 114 116 110 109 112 118 113 112 113 104 96 91 89 91 73 71 81 79 85 74 74 78
173 174 171 173 171 173 176 173 173 166 159 157 154 150 142 140 134 128 108 112 109 119 119 125 117 112 113 112 109 110 111 110 106 101 105 107 98 90 86 85 89 86 86
177 173 171 175 174 176 178 179 180 176 170 163 155 151 149 146 141 144 109 108 104 123 124 119 123 113 112 108 107 101 98 98 97 93 92 95 89 85 84 75 75 76 74
180 175 173 177 179 181 179 181 185 184 178 174 166 162 157 156 158 155 134 114 111 121 125 123 125 120 108 101 104 100 95 92 90 89 88 85 83 81 79 74 71 66 67
182 179 177 179 181 184 181 182 186 187 185 180 174 168 163 164 160 157 165 128 129 127 126 128 131 119 104 96 93 98 96 88 86 86 83 81 79 75 71 65 63 59 60
181 182 177 182 182 184 183 182 185 183 183 182 177 175 169 166 160 156 161 114 132 133 132 132 129 118 102 92 91 93 90 86 84 83 80 78 78 71 68 65 66 62 61
181 181 182 183 184 184 181 181 175 169 163 165 170 171 168 167 166 151 164 127 135 143 140 138 135 126 112 106 99 90 83 85 86 77 77 74 71 66 60 61 67 66 69
183 181 183 183 186 183 180 176 170 159 165 168 169 169 167 168 170 167 177 150 145 149 145 139 137 139 135 124 104 94 87 91 83 79 71 67 61 60 53 53 57 72 77
187 184 184 184 186 181 181 175 170 169 167 166 165 164 168 171 172 184 194 185 163 153 149 146 149 150 146 139 118 104 96 92 85 75 67 70 67 63 55 59 47 73 73
191 188 187 183 186 181 180 177 175 175 173 171 166 173 178 184 187 193 194 188 173 159 157 158 157 158 154 153 144 119 106 98 88 78 68 65 69 67 59 52 29 43 80
194 192 191 185 186 184 181 180 179 177 178 178 177 178 180 187 196 188 175 180 173 168 167 166 166 165 160 163 158 137 121 110 88 80 64 53 60 64 74 98 62 89 79
193 196 195 191 189 187 184 182 183 179 180 181 181 180 186 195 205 190 180 178 173 174 173 172 172 169 167 168 178 159 147 110 103 82 53 47 56 59 63 72 58 97 67
195 195 196 194 191 189 187 186 186 182 181 182 184 189 195 204 206 197 189 180 180 180 179 179 181 184 187 190 190 192 186 160 109 5 0 355 54 43 30 49 74 82 63
199 197 194 198 192 192 190 191 189 189 189 189 191 199 205 206 205 199 193 186 184 183 183 186 189 194 197 197 202 208 198 190 175 18 342 339 72 43 57 65 85 81 8
206 200 198 198 195 194 193 193 191 194 196 198 203 206 209 210 207 198 190 189 188 188 188 190 191 196 194 192 192 193 191 171 168 71 8 52 25 18 92 109 107 43 4
209 205 204 202 199 196 195 193 194 195 197 201 209 213 209 207 201 195 193 191 191 189 190 192 192 188 185 178 164 147 134 116 121 66 56 44 351 7 97 62 132 104 353
225 210 210 205 199 199 197 196 196 197 198 205 212 210 205 199 196 198 196 195 192 191 192 191 189 190 179 164 170 163 171 159 87 100 284 334 344 6 20 40 86 112 15
231 224 218 207 203 201 200 198 198 199 202 207 213 207 203 201 200 197 193 192 192 190 191 188 171 154 147 196 207 193 219 222 198 221 262 302 315 351 11 33 60 130 113
232 222 213 206 206 203 199 201 202 205 203 209 210 208 206 205 204 196 193 187 189 191 190 184 166 176 197 231 147 134 154 154 188 225 261 283 280 308 340 342 303 304 267
234 230 222 209 207 207 202 205 203 202 207 209 209 211 210 208 205 199 196 195 192 190 178 169 178 192 204 163 156 225 222 244 248 254 263 253 251 270 288 307 317 305 296
233 216 217 205 208 201 206 204 203 204 207 207 209 212 212 211 205 200 199 199 191 183 178 174 184 206 196 196 203 207 229 257 251 247 256 258 266 273 287 295 298 303 303
223 227 213 201 213 211 207 207 207 208 209 209 210 211 212 211 208 205 201 195 196 198 197 197 197 191 202 206 214 224 230 248 254 251 253 253 260 271 278 293 295 303 304
209 212 210 208 228 215 210 210 212 214 213 214 212 212 210 210 210 208 203 202 207 210 209 200 196 198 208 211 219 229 220 229 241 263 269 264 269 280 285 305 286 296 294
204 207 210 216 214 220 219 212 211 212 212 215 211 211 210 209 208 209 211 213 216 219 218 209 200 200 214 219 224 234 245 250 256 256 258 257 258 268 276 284 286 288 295
193 193 204 211 207 212 210 220 219 214 217 218 214 214 212 211 211 213 217 220 222 225 227 215 215 218 226 237 240 249 254 260 258 251 260 252 253 265 263 277 294 287 290
190 186 184 216 216 226 252 251 223 222 218 221 222 212 212 217 220 220 222 225 229 230 234 235 222 220 228 240 247 251 258 267 277 269 287 248 242 259 266 271 279 286 282